Skip Page Navigation
NASA JPL Caltech
NASA Logo - Jet Propulsion Laboratory + View the NASA Portal
+ Center for Near-Earth Object Studies
JPL Home Earth Solar System Stars & Galaxies Technology
JPL Solar System Dynamics
BODIES ORBITS EPHEMERIDES TOOLS PHYSICAL DATA DISCOVERY FAQ SITE MAP
JPL Small-Body Database Browser
Search: [ help ]  
3409 Abramov (1977 RE6)
Classification: Main-belt Asteroid          SPK-ID: 2003409
Ephemeris | Orbit Diagram | Orbital Elements | Mission Design | Physical Parameters | Discovery Circumstances ]

[ hide orbit diagram ]
Orbit Diagram
[ switch to new HTML5 viewer ]

Note: This Java-based orbit viewer will eventually be retired.

Note: Make sure you have Java enabled on your browser to see the applet. This applet is provided as a 3D orbit visualization tool. The applet was implemented using two-body methods, and hence should not be used for determining accurate long-term trajectories (over several years or decades) or planetary encounter circumstances. For accurate long-term ephemerides, please instead use our Horizons system.

Note: If the applet is not working, here are some notes that might help.
Orbit Viewer

Additional Notes: the orbits shown in the applet are color coded. The planets are white lines, and the asteroid/comet is a blue line. The bright white line indicates the portion of the orbit that is above the ecliptic plane, and the darker portion is below the ecliptic plane. Likewise for the asteroid/comet orbit, the light blue indicates the portion above the ecliptic plane, and the dark blue the portion below the ecliptic plane.

Orbit Viewer applet originally written and kindly provided by Osamu Ajiki (AstroArts), and further modified by Ron Baalke (JPL).


Orbital Elements at Epoch 2459000.5 (2020-May-31.0) TDB
Reference: JPL 35 (heliocentric ecliptic J2000)
 Element Value Uncertainty (1-sigma)   Units 
e .08030188177827755 3.259e-08  
a 2.857482504541904 1.2661e-08 au
q 2.628021282278684 9.5347e-08 au
i 1.400246720282314 3.5854e-06 deg
node 211.2876914979948 0.00013065 deg
peri 168.6329517836767 0.00013235 deg
M 296.4670252721604 2.2574e-05 deg
tp 2459311.865497357120
(2021-Apr-07.36549736)
0.00011162 TDB
period 1764.305536278399
4.83
1.1726e-05
3.21e-08
d
yr
n .2040462905078101 1.3562e-09 deg/d
Q 3.086943726805125 1.3678e-08 au
  Orbit Determination Parameters
   # obs. used (total)      2612  
   data-arc span      33106 days (90.64 yr)  
   first obs. used      1929-10-27  
   last obs. used      2020-06-17  
   planetary ephem.      DE431  
   SB-pert. ephem.      SB431-N16  
   condition code      0  
   norm. resid. RMS      .45955  
   source      ORB  
   producer      Otto Matic  
   solution date      2020-Jun-23 15:57:02  

Additional Information
 Earth MOID = 1.63021 au 
 Jupiter MOID = 2.31958 au 
 T_jup = 3.298 
[ show covariance matrix ]

Ephemeris | Orbit Diagram | Orbital Elements | Mission Design | Physical Parameters | Discovery Circumstances ]

Physical Parameter Table
Parameter Symbol Value Units Sigma Reference Notes
absolute magnitude H 12.0   n/a MPO347548  
diameter diameter 10.765 km 0.168 urn:nasa:pds:neowise_diameters_albedos::2.0[mainbelt] (http://adsabs.harvard.edu/abs/2011ApJ...741...68M)  
rotation period rot_per 7.791 h n/a LCDB (Rev. 2019-August); Warner et al., 2009 Published Reference List:
[Sada, P.V. (2008) Minor Planet Bull. 35, 105-107.]
geometric albedo albedo 0.242   0.060 urn:nasa:pds:neowise_diameters_albedos::2.0[mainbelt] (http://adsabs.harvard.edu/abs/2011ApJ...741...68M)  

3409 Abramov (1977 RE6)          Discovered 1977-Sep-09 by Chernykh, N. at Nauchnyj
Reference: DISCOVERY.DBLast Updated: 2003-08-29

Alternate Designations
 1977 RE6 = 1929 UP = 1929 VD = 1948 TW1 = 1958 VU = 1972 TF5 = 1979 BS1 = 1980 GF1 = 1982 VY5 = 1985 GD1 
Ephemeris | Orbit Diagram | Orbital Elements | Mission Design | Physical Parameters | Discovery Circumstances ]
ABOUT SSD CREDITS/AWARDS PRIVACY/COPYRIGHT GLOSSARY LINKS
FirstGov 2020-Jul-04 00:09 UT
(server date/time)  
NASA Home Page
Site Manager:   Ryan S. Park
Webmaster  Alan B. Chamberlin